Tracking 30743 objects as of 22-Jun-2025
HD Live streaming from Space Station
objects crossing your sky now

OVZON-3

Track OVZON-3 now!
OVZON-3 is classified as:


NORAD ID: 58698
Int'l Code: 2024-003A
Perigee: 35,792.8 km
Apogee: 35,794.7 km
Inclination: 0.0 °
Period: 1,436.1 minutes
Semi major axis: 42164 km
RCS: Unknown
Launch date: January 3, 2024
Source: Sweden (SWED)
Launch site: AIR FORCE EASTERN TEST RANGE (AFETR)
Your satellite tracking list
Your tracking list is empty




NASA's NSSDC Master Catalog

Two Line Element Set (TLE):
1 58698U 24003A   25172.41572660  .00000061  00000-0  00000-0 0  9990
2 58698   0.0155 355.6886 0000223 278.6233 204.9125  1.00271647  3822
Source of the keplerian elements: AFSPC